Time,TemperatureF,DewpointF,PressureIn,WindDirection,WindDirectionDegrees,WindSpeedMPH,WindSpeedGustMPH,Humidity,HourlyPrecipIn,Conditions,Clouds,dailyrainin,SoftwareType,DateUTC
2013-05-24 00:06:00,72.7,67.6,29.91,NE,45,0.0,-999.0,84,-99.99,,,0.00,Acu-Link.com,2013-05-24 10:06:00,
2013-05-24 00:21:00,72.5,67.4,29.91,West,270,1.1,-999.0,84,-99.99,,,0.00,Acu-Link.com,2013-05-24 10:21:00,
2013-05-24 00:37:00,72.7,67.6,29.91,ENE,67,0.0,-999.0,84,-99.99,,,0.00,Acu-Link.com,2013-05-24 10:37:00,
2013-05-24 00:52:00,72.3,67.2,29.92,NE,45,0.0,-999.0,84,-99.99,,,0.00,Acu-Link.com,2013-05-24 10:52:00,
2013-05-24 01:07:00,72.3,67.2,29.91,NNE,22,0.0,-999.0,84,-99.99,,,0.00,Acu-Link.com,2013-05-24 11:07:00,
2013-05-24 01:22:00,72.3,67.9,29.89,NNE,22,0.0,-999.0,86,-99.99,,,0.00,Acu-Link.com,2013-05-24 11:22:00,
2013-05-24 01:38:00,72.0,67.6,29.92,NNE,22,0.0,-999.0,86,-99.99,,,0.00,Acu-Link.com,2013-05-24 11:38:00,
2013-05-24 05:54:00,70.2,66.1,29.91,NNE,22,0.0,-999.0,87,-99.99,,,0.00,Acu-Link.com,2013-05-24 15:54:00,
2013-05-24 06:09:00,70.2,66.1,29.89,NNE,22,0.0,-999.0,87,-99.99,,,0.00,Acu-Link.com,2013-05-24 16:09:00,
2013-05-24 06:24:00,70.2,66.1,29.91,NNE,22,0.0,-999.0,87,-99.99,,,0.00,Acu-Link.com,2013-05-24 16:24:00,
2013-05-24 06:39:00,70.5,66.8,29.90,NNE,22,0.0,-999.0,88,-99.99,,,0.00,Acu-Link.com,2013-05-24 16:39:00,
2013-05-24 06:55:00,71.1,67.0,29.90,NNE,22,1.7,-999.0,87,-99.99,,,0.00,Acu-Link.com,2013-05-24 16:55:00,
2013-05-24 07:10:00,71.8,67.4,29.91,NE,45,0.0,-999.0,86,-99.99,,,0.00,Acu-Link.com,2013-05-24 17:10:00,
2013-05-24 07:25:00,72.0,67.2,29.91,NNE,22,0.0,-999.0,85,-99.99,,,0.00,Acu-Link.com,2013-05-24 17:25:00,
2013-05-24 07:40:00,72.3,67.5,29.93,NNW,337,0.0,-999.0,85,-99.99,,,0.00,Acu-Link.com,2013-05-24 17:40:00,
2013-05-24 07:55:00,73.0,67.9,29.92,NNE,22,0.0,-999.0,84,-99.99,,,0.00,Acu-Link.com,2013-05-24 17:55:00,
2013-05-24 08:10:00,74.1,67.5,29.92,NE,45,0.0,-999.0,80,-99.99,,,0.00,Acu-Link.com,2013-05-24 18:10:00,
2013-05-24 08:26:00,75.0,68.8,29.91,ENE,67,0.0,-999.0,81,-99.99,,,0.00,Acu-Link.com,2013-05-24 18:26:00,
2013-05-24 08:41:00,75.9,68.5,29.94,NNE,22,0.0,-999.0,78,-99.99,,,0.00,Acu-Link.com,2013-05-24 18:41:00,
2013-05-24 08:56:00,76.8,68.6,29.94,NNE,22,0.0,-999.0,76,-99.99,,,0.00,Acu-Link.com,2013-05-24 18:56:00,
2013-05-24 09:12:00,78.1,69.1,29.91,NNE,22,0.0,-999.0,74,-99.99,,,0.00,Acu-Link.com,2013-05-24 19:12:00,
2013-05-24 09:27:00,80.2,68.7,29.94,West,270,1.7,-999.0,68,-99.99,,,0.00,Acu-Link.com,2013-05-24 19:27:00,
2013-05-24 09:42:00,81.3,69.7,29.93,East,90,1.7,-999.0,68,-99.99,,,0.00,Acu-Link.com,2013-05-24 19:42:00,
2013-05-24 09:57:00,83.5,69.1,29.93,NNE,22,2.2,-999.0,62,-99.99,,,0.00,Acu-Link.com,2013-05-24 19:57:00,
2013-05-24 10:12:00,80.2,71.1,29.92,NNE,22,1.1,-999.0,74,-99.99,,,0.00,Acu-Link.com,2013-05-24 20:12:00,
2013-05-24 10:28:00,83.5,70.0,29.92,NNW,337,3.2,-999.0,64,-99.99,,,0.00,Acu-Link.com,2013-05-24 20:28:00,
2013-05-24 10:43:00,85.1,70.1,29.91,SSW,202,2.7,-999.0,61,-99.99,,,0.00,Acu-Link.com,2013-05-24 20:43:00,
2013-05-24 10:58:00,86.0,70.0,29.92,WNW,292,1.7,-999.0,59,-99.99,,,0.00,Acu-Link.com,2013-05-24 20:58:00,
2013-05-24 11:13:00,87.1,70.5,29.91,West,270,2.7,-999.0,58,-99.99,,,0.00,Acu-Link.com,2013-05-24 21:13:00,
2013-05-24 11:28:00,86.9,69.8,29.90,East,90,5.3,-999.0,57,-99.99,,,0.00,Acu-Link.com,2013-05-24 21:28:00,
2013-05-24 11:44:00,87.8,70.1,29.89,NNW,337,3.2,-999.0,56,-99.99,,,0.00,Acu-Link.com,2013-05-24 21:44:00,
2013-05-24 11:59:00,86.7,70.1,29.90,NE,45,2.2,-999.0,58,-99.99,,,0.00,Acu-Link.com,2013-05-24 21:59:00,
2013-05-24 12:14:00,85.1,71.1,29.91,NNW,337,0.0,-999.0,63,-99.99,,,0.00,Acu-Link.com,2013-05-24 22:14:00,
2013-05-24 12:29:00,83.7,70.2,29.89,West,270,3.7,-999.0,64,-99.99,,,0.00,Acu-Link.com,2013-05-24 22:29:00,
2013-05-24 12:45:00,87.3,69.1,29.90,NNW,337,3.2,-999.0,55,-99.99,,,0.00,Acu-Link.com,2013-05-24 22:45:00,
2013-05-24 13:00:00,88.0,69.8,29.88,NNE,22,2.2,-999.0,55,-99.99,,,0.00,Acu-Link.com,2013-05-24 23:00:00,
2013-05-24 13:15:00,88.2,68.9,29.90,WSW,247,2.7,-999.0,53,-99.99,,,0.00,Acu-Link.com,2013-05-24 23:15:00,
2013-05-24 17:29:00,82.8,67.9,29.85,WSW,247,2.7,-999.0,61,-99.99,,,0.00,Acu-Link.com,2013-05-25 03:29:00,
2013-05-24 17:45:00,82.8,67.5,29.85,North,0,0.0,-999.0,60,-99.99,,,0.00,Acu-Link.com,2013-05-25 03:45:00,
2013-05-24 18:00:00,83.1,67.8,29.86,NNW,337,1.1,-999.0,60,-99.99,,,0.00,Acu-Link.com,2013-05-25 04:00:00,
2013-05-24 18:15:00,80.2,67.3,29.87,NE,45,0.0,-999.0,65,-99.99,,,0.00,Acu-Link.com,2013-05-25 04:15:00,
2013-05-24 18:30:00,79.3,67.4,29.87,NNE,22,2.2,-999.0,67,-99.99,,,0.00,Acu-Link.com,2013-05-25 04:30:00,
2013-05-24 18:46:00,78.6,66.3,29.87,NNE,22,0.0,-999.0,66,-99.99,,,0.00,Acu-Link.com,2013-05-25 04:46:00,
2013-05-24 19:01:00,77.7,65.0,29.89,NNE,22,1.1,-999.0,65,-99.99,,,0.00,Acu-Link.com,2013-05-25 05:01:00,
2013-05-24 19:16:00,77.2,64.5,29.88,WNW,292,0.0,-999.0,65,-99.99,,,0.00,Acu-Link.com,2013-05-25 05:16:00,
2013-05-24 19:31:00,76.5,64.7,29.89,NE,45,0.0,-999.0,67,-99.99,,,0.00,Acu-Link.com,2013-05-25 05:31:00,
2013-05-24 19:46:00,76.1,65.6,29.89,NE,45,1.1,-999.0,70,-99.99,,,0.00,Acu-Link.com,2013-05-25 05:46:00,
2013-05-24 20:02:00,75.9,65.8,29.89,ENE,67,1.7,-999.0,71,-99.99,,,0.00,Acu-Link.com,2013-05-25 06:02:00,
2013-05-24 20:17:00,75.9,65.8,29.88,NW,315,0.0,-999.0,71,-99.99,,,0.00,Acu-Link.com,2013-05-25 06:17:00,
2013-05-24 20:32:00,75.9,65.8,29.91,North,0,1.7,-999.0,71,-99.99,,,0.00,Acu-Link.com,2013-05-25 06:32:00,
2013-05-24 20:48:00,75.9,66.2,29.90,NE,45,0.0,-999.0,72,-99.99,,,0.00,Acu-Link.com,2013-05-25 06:48:00,
2013-05-24 21:03:00,75.4,66.5,29.91,NNE,22,0.0,-999.0,74,-99.99,,,0.00,Acu-Link.com,2013-05-25 07:03:00,
2013-05-24 21:18:00,75.0,67.7,29.90,North,0,1.1,-999.0,78,-99.99,,,0.00,Acu-Link.com,2013-05-25 07:18:00,
2013-05-24 21:33:00,74.5,67.9,29.93,NNE,22,1.1,-999.0,80,-99.99,,,0.00,Acu-Link.com,2013-05-25 07:33:00,
2013-05-24 21:49:00,73.9,66.2,29.94,NNW,337,0.0,-999.0,77,-99.99,,,0.00,Acu-Link.com,2013-05-25 07:49:00,
2013-05-24 22:04:00,73.8,65.7,29.91,SW,225,2.7,-999.0,76,-99.99,,,0.00,Acu-Link.com,2013-05-25 08:04:00,
2013-05-24 22:19:00,73.9,66.6,29.93,West,270,1.7,-999.0,78,-99.99,,,0.00,Acu-Link.com,2013-05-25 08:19:00,
2013-05-24 22:34:00,73.9,65.8,29.92,NNE,22,1.7,-999.0,76,-99.99,,,0.00,Acu-Link.com,2013-05-25 08:34:00,